Lapse_Rate
0.6 1.0 1.2 1.7 1.9 2.0 2.3 1.6 2.1 2.1 2.1 2.5 2.4 2.7 2.3 2.0 1.6 1.2 0.7 0.9 0.8 0.3 0.4 0.2 0.5 0.7 1.6 2.0 2.5 3.0 3.3 3.7 5.2 4.5 3.4 3.8 4.6 5.0 5.1 4.7 4.7 4.8 5.1
1.0 0.5 0.8 0.7 1.1 1.5 1.8 1.8 1.4 1.9 1.5 2.1 2.2 2.7 2.7 2.2 1.4 1.1 0.5 0.9 0.9 0.7 0.5 0.2 0.8 0.9 0.8 1.0 2.1 2.5 3.1 2.6 4.3 4.5 3.8 4.1 4.0 4.3 4.8 4.8 5.1 5.3 4.8
2.3 1.8 1.5 1.1 1.0 0.9 1.4 1.7 1.0 1.6 1.5 1.7 2.1 2.5 2.7 2.4 1.9 1.5 1.6 1.4 1.3 1.4 1.4 1.0 1.0 1.1 0.9 1.1 1.3 2.5 2.9 2.9 2.9 4.2 4.9 3.5 3.8 3.7 4.0 3.5 3.9 4.0 4.6
2.6 2.0 1.2 1.0 0.3 0.7 0.9 1.2 0.9 1.2 1.8 1.3 1.9 2.4 2.9 2.6 2.5 2.3 2.1 1.8 1.7 1.8 1.5 1.6 1.5 1.4 1.4 1.3 1.8 1.8 2.7 3.0 2.9 3.1 3.7 4.2 4.0 3.7 3.4 4.6 4.8 3.9 4.5
1.7 2.0 1.0 0.5 0.4 0.3 0.6 0.8 0.9 0.8 1.7 1.5 1.7 2.4 3.0 3.2 3.3 2.6 2.4 2.2 2.0 2.1 1.6 1.3 1.7 2.4 2.3 2.3 3.2 2.5 2.9 3.4 3.8 3.3 3.4 3.3 3.2 4.1 5.0 5.1 4.2 3.8 4.6
-0.1 -0.7 -0.1 0.9 0.7 0.2 0.4 0.5 0.4 0.5 1.1 1.3 1.8 2.0 2.4 3.6 2.1 0.8 2.5 2.6 2.2 2.1 1.8 1.0 1.4 1.7 2.8 1.9 2.2 2.5 3.8 3.9 4.2 3.9 3.5 4.7 4.2 3.9 3.4 3.5 4.9 5.2 5.9
-0.4 -0.9 -0.6 0.1 -0.0 -0.1 0.5 0.7 0.2 0.2 0.6 0.8 1.2 1.7 1.8 2.1 -0.3 -0.4 0.8 2.8 2.2 1.9 1.9 0.9 1.4 2.9 2.6 3.5 2.0 2.0 2.3 2.9 4.0 4.4 4.2 4.1 4.3 4.0 3.4 2.7 3.4 5.2 5.4
0.0 -0.1 0.1 0.4 0.4 0.3 0.5 0.3 0.3 0.5 0.5 0.6 0.6 0.9 1.5 1.5 -1.8 -1.8 0.2 2.5 1.6 1.9 1.5 1.3 2.0 2.9 2.7 3.2 3.5 3.6 3.7 3.7 3.4 3.2 3.8 3.5 3.4 2.7 4.2 4.0 4.1 4.6 4.1
0.9 1.2 0.3 -0.6 -0.2 0.9 0.9 0.2 0.7 1.3 0.6 0.5 0.8 0.3 0.4 0.9 -3.3 -2.8 -1.4 1.9 1.7 1.8 1.4 1.7 1.8 2.5 1.1 1.4 2.8 4.1 4.2 3.6 2.4 2.8 3.0 3.0 3.4 3.3 3.7 3.9 4.3 4.7 4.8
-1.3 -1.6 -1.6 -1.2 -0.6 0.3 -0.4 0.0 0.9 1.2 1.1 1.5 0.8 0.4 -0.4 0.8 -4.3 -3.9 -1.4 1.4 1.8 2.0 1.7 1.2 1.2 1.1 -0.2 1.1 3.9 4.0 4.3 3.1 3.1 3.3 3.1 2.3 2.9 3.5 3.0 3.9 5.3 5.9 5.8
-1.6 -1.1 -0.5 -0.4 0.0 0.5 1.4 1.9 2.0 3.4 3.5 2.3 1.8 2.3 1.0 0.1 -0.9 -4.3 -2.6 1.8 2.2 2.2 1.4 2.4 2.3 -1.5 -1.7 -1.0 1.6 3.9 3.6 3.3 3.6 4.4 4.5 4.2 3.8 4.2 4.6 3.6 3.8 5.5 5.4
-1.0 -0.3 -0.6 -0.1 0.4 1.7 1.6 1.6 1.5 1.2 1.3 2.4 3.4 3.8 3.1 1.9 -2.2 -4.6 -1.9 -0.4 0.5 1.4 1.5 1.9 2.7 -1.4 -2.1 -1.9 0.1 1.5 0.7 2.5 3.8 4.2 4.0 4.3 4.6 4.5 4.5 4.2 4.1 4.5 5.2
0.7 1.1 1.5 2.7 3.4 3.4 2.4 3.0 3.8 5.4 5.5 5.6 5.3 5.2 4.6 3.6 -2.2 -4.4 -3.2 -2.2 -0.6 2.2 1.8 1.4 -0.4 -2.7 -2.8 -1.7 -0.5 -0.0 0.3 2.7 3.0 3.4 4.1 4.1 3.7 4.1 3.6 4.0 4.0 3.8 4.0
-0.6 0.1 0.5 1.4 2.8 3.9 4.7 5.3 5.5 5.8 5.5 5.6 5.3 4.8 4.0 2.7 0.9 -0.9 -0.7 1.1 0.5 1.6 0.5 -0.3 -0.3 0.1 0.6 1.1 0.3 0.5 2.4 2.5 3.0 3.9 3.9 3.5 3.1 3.4 4.5 4.6 5.5 5.0 5.4
-1.5 -1.9 -1.2 -0.2 -2.4 -2.9 -3.2 -1.1 1.1 -0.9 2.9 2.9 2.8 3.0 3.2 3.2 1.9 -1.5 0.5 2.6 2.9 1.5 0.7 -1.0 1.0 1.7 1.4 1.4 1.6 1.9 1.7 2.0 2.4 2.4 3.0 3.4 3.9 4.1 4.6 4.1 4.5 4.6 5.8
-1.1 -0.9 -1.4 -1.7 -1.2 0.0 0.3 -0.1 -4.5 -3.2 -3.5 -4.0 -2.2 1.6 3.1 2.0 0.4 -1.7 -1.3 0.2 -0.2 -1.5 2.5 2.5 2.3 2.4 2.6 2.0 1.9 1.5 1.4 1.7 2.5 2.8 3.3 3.8 4.6 4.9 5.1 4.3 4.3 5.2 5.9
-0.7 -0.5 -0.2 0.7 1.7 2.2 2.5 2.1 1.8 1.1 -2.4 -2.5 -2.8 -1.4 -0.5 1.5 -0.2 -1.9 -3.6 -3.6 -1.6 0.0 3.1 3.0 3.2 2.2 2.1 1.9 2.5 2.9 3.0 2.7 2.6 3.2 3.7 4.1 4.5 4.5 4.4 5.1 5.1 5.3 5.9
0.1 -0.7 2.1 2.3 2.2 2.3 2.1 2.4 2.4 2.1 1.1 0.3 -3.6 -0.6 -4.3 -2.8 -3.1 -4.1 -6.6 -0.5 1.6 2.2 2.9 2.8 2.8 2.3 2.2 2.7 2.8 3.3 3.1 2.9 3.1 3.2 3.6 4.0 4.0 4.7 5.0 5.4 5.6 5.8 5.9
1.1 1.0 1.7 2.5 2.7 2.4 2.6 2.7 2.7 2.2 0.8 -1.0 -2.7 -3.2 -4.3 -4.7 -3.4 -2.5 -0.9 2.8 2.1 1.9 2.6 2.8 2.9 2.7 2.9 3.4 3.4 3.0 2.9 2.7 2.5 2.7 3.3 3.7 4.2 5.1 5.3 5.8 6.0 3.9 4.3
2.3 0.9 1.2 1.9 2.8 2.8 2.0 1.6 1.2 0.7 2.2 1.8 0.7 0.4 -3.0 -0.4 1.8 2.4 1.9 1.9 1.7 1.6 1.6 2.4 2.1 2.4 2.6 2.4 2.3 2.0 1.8 1.9 2.6 3.5 4.0 4.4 4.5 5.5 6.4 6.3 6.2 6.7 6.2
2.2 2.4 2.2 3.4 3.1 2.9 2.3 1.9 2.1 3.4 1.8 2.0 1.5 0.8 1.8 2.8 2.7 2.0 1.6 1.7 1.8 2.0 1.7 2.4 1.9 1.9 1.7 1.8 2.1 2.4 3.1 3.9 4.0 4.4 4.5 4.3 4.4 5.7 5.7 5.9 6.2 6.1 6.1
2.9 3.0 3.0 2.3 1.9 1.9 1.7 2.1 1.6 1.7 1.9 1.1 -0.4 -0.5 -0.9 2.9 2.1 1.5 1.5 2.0 2.7 2.4 2.4 2.3 2.3 2.8 3.1 3.1 3.3 4.0 4.3 4.5 3.9 3.8 4.0 4.4 5.0 5.7 5.8 5.8 6.1 6.3 6.3
2.3 2.6 2.4 2.6 2.4 1.1 1.5 0.5 0.7 1.4 1.3 1.4 1.6 2.0 2.7 2.7 2.4 2.4 2.6 2.8 2.0 2.1 2.0 2.8 3.1 3.4 3.0 3.1 3.5 4.1 4.5 4.8 4.6 4.3 4.5 4.8 5.3 5.6 5.5 5.8 6.1 6.4 6.5
2.5 2.7 2.5 2.3 2.5 2.9 2.4 1.7 0.9 0.7 2.0 2.2 2.1 1.9 1.4 2.1 2.6 2.4 2.5 2.5 2.3 2.4 2.5 3.3 4.0 4.7 3.5 3.1 2.8 3.5 4.0 3.9 3.4 4.2 5.0 5.4 5.5 3.8 5.0 5.3 5.8 5.7 6.1
2.6 2.3 2.3 2.6 2.9 3.0 4.1 3.7 3.4 2.9 2.0 1.5 1.3 1.8 1.1 1.6 2.3 2.4 2.3 2.3 2.9 2.8 2.8 3.2 3.9 4.1 3.7 3.3 3.3 3.5 3.4 2.6 3.4 3.6 4.3 4.9 5.1 4.4 5.0 5.7 5.7 5.9 6.2
4.0 3.6 3.4 3.7 4.0 4.0 4.0 4.2 3.9 3.9 3.9 2.8 2.3 2.3 2.4 2.3 2.5 2.3 1.9 1.8 2.8 2.9 3.2 3.4 3.9 4.1 3.7 3.5 3.3 3.2 1.4 0.8 1.1 2.5 3.5 4.3 4.8 4.7 4.9 5.3 5.5 6.4 6.5
Wind_Speed
19 18 18 16 16 15 13 13 13 11 11 10 11 11 11 11 11 10 9 8 9 7 6 7 7 6 5 5 4 3 3 3 3 1 3 1 2 2 2 2 4 7 10
19 19 19 18 17 17 16 14 12 13 10 12 11 12 12 12 12 13 12 11 11 10 9 8 8 6 6 6 5 5 4 4 3 4 2 3 4 1 2 3 4 6 8
18 18 18 18 18 19 18 16 14 14 13 12 12 14 14 14 13 13 13 13 12 12 11 11 10 9 8 6 5 6 4 4 4 3 3 1 1 1 2 2 2 3 4
19 19 20 20 20 20 19 18 16 15 14 14 14 14 14 13 13 13 13 12 11 11 11 11 11 12 11 9 8 8 5 4 4 3 3 3 3 1 1 2 3 2 3
18 19 21 19 19 18 18 17 16 16 16 15 15 14 13 13 11 14 13 13 12 11 10 10 9 8 9 10 6 7 7 5 5 5 2 3 2 2 3 1 3 3 3
20 22 20 19 18 19 17 17 17 16 17 15 16 16 15 12 17 19 17 13 13 13 12 11 11 13 11 13 14 11 11 8 8 5 3 5 4 3 3 2 2 3 3
20 19 18 19 20 19 17 17 18 18 16 18 17 17 18 18 19 21 22 13 13 13 13 12 7 6 11 10 14 14 13 14 8 7 6 6 4 5 4 4 3 5 4
19 18 16 17 18 18 18 20 19 16 18 17 17 18 18 16 18 21 23 16 11 12 12 11 9 10 12 13 10 8 9 9 8 5 6 5 5 6 5 4 3 4 3
16 16 17 19 19 18 19 21 19 16 16 18 16 16 18 17 18 20 18 14 11 12 12 12 13 10 11 15 11 9 7 5 10 15 13 11 13 11 8 4 5 4 3
17 20 19 20 20 20 21 19 17 15 16 12 14 16 17 16 17 21 21 11 13 10 11 10 15 13 12 14 9 9 8 7 8 8 7 4 8 7 11 9 4 5 3
18 16 16 17 18 18 15 14 15 14 13 15 15 13 15 17 14 21 25 13 11 10 6 5 8 15 16 15 10 8 7 8 10 7 5 4 4 3 3 7 7 5 4
8 13 14 16 14 14 17 14 15 16 17 17 14 12 11 13 14 18 23 15 9 7 8 4 5 12 13 14 11 10 10 7 5 5 6 5 3 2 2 4 5 7 7
5 5 4 4 8 9 13 11 8 9 10 11 10 11 10 10 10 24 21 19 15 8 7 10 12 11 11 8 9 10 12 5 6 6 5 4 3 3 2 2 3 3 4
8 8 7 7 5 3 3 3 6 6 7 6 6 7 5 4 5 6 10 8 17 10 14 9 8 9 6 6 5 7 5 6 7 6 5 4 3 3 2 2 2 0 1
5 6 6 6 8 8 6 3 6 3 4 5 4 5 4 4 2 16 12 14 10 8 7 9 8 5 5 4 4 4 5 5 5 5 4 5 4 3 3 3 1 1 2
8 5 6 7 7 7 10 10 15 19 21 24 24 17 9 9 1 18 13 11 3 11 5 6 7 6 6 6 6 6 5 8 6 6 5 5 4 4 4 3 2 2 2
9 8 7 7 6 8 10 13 11 5 11 23 21 19 17 4 21 19 17 16 18 10 5 7 7 7 5 6 7 6 6 6 6 6 5 5 4 4 4 3 2 2 2
9 10 8 7 8 8 7 7 8 9 6 4 1 12 21 19 9 10 22 12 7 1 5 7 7 6 6 7 7 5 4 5 5 5 5 5 5 4 3 3 3 2 1
6 5 6 6 7 8 7 7 4 2 2 4 5 9 11 16 10 13 15 10 9 6 5 6 6 7 6 6 5 5 6 6 5 6 6 6 5 5 4 4 3 3 2
4 8 6 5 6 6 4 3 3 5 5 4 7 6 8 9 9 9 4 6 8 6 6 5 5 5 6 6 6 6 6 6 6 6 5 5 5 5 5 5 3 2 1
5 5 7 6 6 5 5 6 3 3 4 6 6 7 10 8 8 7 5 5 6 6 6 5 5 6 5 6 6 6 6 6 5 5 6 5 6 5 4 3 3 2 1
5 5 5 6 7 6 5 4 6 5 5 7 6 5 9 7 7 6 6 6 6 6 6 7 6 6 7 7 7 6 6 7 6 5 6 6 5 5 4 3 3 2 1
4 5 5 6 5 6 4 7 7 6 5 7 9 8 7 7 7 7 7 7 7 6 6 5 6 5 5 5 7 6 7 7 7 7 8 7 6 5 4 4 3 2 0
5 6 5 5 4 3 3 2 5 6 7 7 8 7 5 6 7 7 6 6 6 6 6 6 7 8 7 5 8 9 8 6 9 12 11 8 6 6 4 4 3 2 1
4 5 6 5 5 5 4 4 3 2 3 4 4 4 4 2 3 5 6 6 7 7 8 7 5 7 9 11 11 12 11 15 15 15 10 6 7 8 5 4 4 2 1
4 3 4 4 4 5 6 3 3 3 2 2 3 4 6 7 4 3 4 5 7 7 9 8 8 13 14 15 16 17 17 21 18 18 12 7 5 5 5 5 5 3 2
Wind_Direction
193 197 197 199 201 203 205 203 202 196 197 187 191 194 195 188 187 187 193 187 196 191 189 191 200 185 188 192 181 177 185 172 199 199 222 255 270 285 243 250 261 271 279
196 194 197 194 197 200 205 206 197 198 197 195 193 197 200 194 189 194 198 195 199 196 201 193 202 192 194 186 192 194 195 190 175 212 204 214 218 236 262 286 297 291 288
194 196 199 197 194 201 205 205 196 197 195 194 195 200 200 199 191 200 200 198 199 202 200 200 200 193 202 186 191 202 202 192 192 186 234 219 250 226 237 243 256 270 271
195 195 197 199 198 200 204 202 196 196 195 195 200 203 202 199 198 201 201 201 202 204 203 205 203 201 201 191 198 200 199 199 189 209 209 235 231 211 248 280 302 237 279
193 196 204 200 202 203 202 201 199 197 201 197 199 203 204 202 202 202 201 201 201 205 206 207 214 214 216 199 192 195 189 196 210 206 216 195 220 198 221 222 271 300 278
191 202 199 198 199 203 201 198 201 198 200 198 201 202 204 210 204 197 195 198 201 204 204 211 196 182 223 216 201 187 192 190 209 205 195 229 209 194 189 204 283 284 293
198 204 199 196 199 202 198 198 203 203 194 201 203 201 207 212 198 195 193 198 197 202 205 206 187 202 201 213 212 206 200 196 187 189 212 214 214 201 173 184 222 250 249
203 200 196 198 205 199 196 203 205 202 202 201 202 204 208 213 195 190 191 204 198 198 197 188 191 201 193 199 203 206 216 210 199 184 193 196 206 168 206 214 209 244 271
200 198 198 197 200 200 203 205 206 203 205 208 208 201 206 213 187 184 182 198 196 195 191 189 188 203 220 197 178 200 205 193 198 200 202 199 214 211 205 195 226 218 260
198 203 199 197 199 201 205 206 205 202 208 206 211 209 204 208 185 180 181 188 197 197 200 192 191 174 168 191 190 185 191 187 178 194 214 223 224 224 204 208 204 236 242
201 198 199 199 200 203 203 201 198 206 208 206 207 204 202 201 193 185 180 188 194 193 177 189 220 176 164 181 183 180 185 157 195 195 187 183 197 198 217 219 218 215 202
189 196 195 197 197 198 196 194 196 194 200 204 201 194 195 194 177 180 180 192 190 173 146 183 240 165 164 176 178 171 152 142 155 167 167 185 193 209 206 203 212 219 232
148 209 211 239 227 212 199 199 215 204 205 207 205 213 207 197 183 177 183 158 161 140 120 175 185 160 153 160 179 153 147 154 153 160 182 173 172 156 204 220 205 214 246
175 172 155 151 139 122 142 174 189 195 211 212 212 208 182 205 221 188 157 138 136 128 157 134 119 123 120 126 117 155 157 164 167 176 169 155 144 163 212 229 221 289 287
122 129 126 115 113 105 82 68 101 44 132 131 115 82 84 85 100 56 313 133 159 193 151 116 121 128 130 140 128 154 148 149 166 164 163 163 162 167 207 202 196 177 257
94 90 102 115 114 111 101 85 55 102 97 92 87 89 51 42 15 95 99 14 140 123 111 138 147 153 163 161 152 176 161 168 177 177 176 174 173 199 204 182 187 218 242
107 107 107 114 121 121 130 127 121 80 101 126 128 139 160 149 187 166 149 157 184 170 171 153 158 158 167 157 166 171 167 176 173 187 183 186 180 191 181 187 195 207 212
95 96 114 122 119 123 124 136 143 149 160 190 141 170 135 142 243 192 120 155 174 94 149 160 157 161 156 160 167 169 151 158 177 178 189 186 175 173 176 188 205 199 221
110 112 118 128 140 145 152 161 172 120 161 172 139 51 91 104 138 138 170 167 165 144 147 147 158 154 156 164 168 168 170 166 168 173 180 170 165 168 179 186 191 193 204
95 109 99 108 102 103 103 102 124 122 179 155 95 124 94 118 157 163 121 150 134 141 147 153 148 154 159 157 164 152 141 145 161 168 172 159 169 181 182 183 175 178 195
89 97 107 120 116 119 125 106 90 153 101 83 101 112 132 140 145 147 141 143 133 145 152 164 169 153 142 139 145 148 150 162 171 173 174 180 170 172 195 175 157 168 282
111 111 115 118 102 97 93 122 126 101 106 116 109 115 139 143 146 146 150 156 165 164 158 158 151 145 152 157 162 160 171 178 176 184 177 171 173 185 178 165 176 170 153
91 99 99 98 97 105 145 150 130 130 144 144 155 161 158 152 155 163 168 170 158 151 149 139 132 149 151 158 175 172 178 186 190 180 174 172 177 182 170 169 180 180 167
104 89 83 92 92 96 88 83 99 125 148 157 157 161 154 164 169 170 165 152 143 140 139 159 168 165 164 167 181 197 200 181 181 187 174 171 177 175 172 171 177 171 297
57 95 105 101 93 80 64 60 84 88 97 133 128 131 133 101 205 172 164 154 156 161 171 177 175 176 182 183 188 193 199 187 176 173 170 166 173 176 179 180 170 158 130
44 82 97 99 99 102 84 68 67 83 65 109 126 173 178 173 181 188 173 166 176 179 175 184 185 192 191 190 190 190 188 180 170 171 163 161 171 177 189 188 180 173 154